TimeMST,TemperatureF,Dew PointF,Humidity,Sea Level PressureIn,VisibilityMPH,Wind Direction,Wind SpeedMPH,Gust SpeedMPH,PrecipitationIn,Events,Conditions,WindDirDegrees,DateUTC
12:15 AM,32.0,32.0,100,29.93,10.0,SSE,8.1,-,N/A,,Scattered Clouds,150,2012-12-31 07:15:00
12:35 AM,32.0,32.0,100,29.92,10.0,SSE,8.1,-,N/A,,Mostly Cloudy,150,2012-12-31 07:35:00
12:55 AM,32.0,32.0,100,29.90,10.0,SE,12.7,-,N/A,,Mostly Cloudy,130,2012-12-31 07:55:00
1:15 AM,32.0,32.0,100,29.92,10.0,South,4.6,-,N/A,,Mostly Cloudy,190,2012-12-31 08:15:00
1:35 AM,32.0,32.0,100,29.92,10.0,SSW,6.9,-,N/A,,Overcast,200,2012-12-31 08:35:00
1:55 AM,32.0,32.0,100,29.92,10.0,South,6.9,-,N/A,,Overcast,170,2012-12-31 08:55:00
2:15 AM,32.0,32.0,100,29.92,7.0,South,6.9,-,N/A,,Overcast,170,2012-12-31 09:15:00
2:35 AM,32.0,32.0,100,29.91,5.0,SSE,9.2,-,N/A,,Mostly Cloudy,160,2012-12-31 09:35:00
2:55 AM,32.0,32.0,100,29.91,4.0,SE,6.9,-,N/A,,Mostly Cloudy,140,2012-12-31 09:55:00
3:15 AM,32.0,32.0,100,29.91,5.0,SSE,6.9,-,N/A,,Overcast,160,2012-12-31 10:15:00
3:35 AM,32.0,32.0,100,29.91,5.0,SE,8.1,-,N/A,,Overcast,140,2012-12-31 10:35:00
3:55 AM,32.0,32.0,100,29.91,5.0,SE,3.5,-,N/A,,Overcast,130,2012-12-31 10:55:00
4:15 AM,32.0,32.0,100,29.91,1.2,South,4.6,-,N/A,,Overcast,170,2012-12-31 11:15:00
4:35 AM,32.0,32.0,100,29.91,0.2,SSE,3.5,-,N/A,Fog,Fog,160,2012-12-31 11:35:00
4:55 AM,32.0,32.0,100,29.91,0.2,SSE,6.9,-,N/A,Fog,Fog,150,2012-12-31 11:55:00
5:15 AM,32.0,32.0,100,29.91,0.2,South,9.2,-,N/A,Fog,Light Freezing Fog,170,2012-12-31 12:15:00
5:35 AM,32.0,32.0,100,29.91,0.2,South,6.9,-,N/A,Fog,Light Freezing Fog,190,2012-12-31 12:35:00
5:55 AM,30.2,30.2,100,29.92,0.2,SSW,4.6,-,N/A,Fog,Light Freezing Fog,210,2012-12-31 12:55:00
6:15 AM,30.2,30.2,100,29.93,0.2,Calm,Calm,-,N/A,Fog,Light Freezing Fog,0,2012-12-31 13:15:00
6:35 AM,30.2,30.2,100,29.94,0.2,SE,5.8,-,N/A,Fog,Light Freezing Fog,130,2012-12-31 13:35:00
6:55 AM,28.4,28.4,100,29.94,0.2,SE,5.8,-,N/A,Fog,Light Freezing Fog,140,2012-12-31 13:55:00
7:15 AM,30.2,30.2,100,29.94,4.0,SSE,8.1,-,N/A,,Scattered Clouds,160,2012-12-31 14:15:00
7:35 AM,32.0,32.0,100,29.94,8.0,NE,5.8,-,N/A,,Clear,50,2012-12-31 14:35:00
7:55 AM,32.0,32.0,100,29.95,10.0,SSE,6.9,-,N/A,Rain,Light Rain,150,2012-12-31 14:55:00
8:15 AM,37.4,35.6,93,29.96,10.0,SSW,5.8,-,N/A,,Clear,200,2012-12-31 15:15:00
8:35 AM,39.2,33.8,81,29.96,10.0,SSW,11.5,18.4,N/A,,Clear,200,2012-12-31 15:35:00
8:55 AM,41.0,32.0,70,29.97,10.0,SSW,15.0,21.9,N/A,,Clear,210,2012-12-31 15:55:00
9:15 AM,44.6,32.0,61,29.98,10.0,SW,23.0,28.8,N/A,,Clear,230,2012-12-31 16:15:00
9:35 AM,44.6,32.0,61,29.98,10.0,SW,17.3,27.6,N/A,,Clear,230,2012-12-31 16:35:00
9:55 AM,46.4,32.0,57,29.97,10.0,WSW,24.2,31.1,N/A,,Clear,240,2012-12-31 16:55:00
10:15 AM,46.4,30.2,53,29.96,10.0,WSW,25.3,34.5,N/A,,Clear,240,2012-12-31 17:15:00
10:35 AM,48.2,30.2,50,29.94,10.0,WSW,35.7,42.6,N/A,,Clear,250,2012-12-31 17:35:00
10:55 AM,48.2,28.4,46,29.94,10.0,WSW,32.2,42.6,N/A,,Clear,240,2012-12-31 17:55:00
11:15 AM,48.2,28.4,46,29.93,10.0,WSW,32.2,42.6,N/A,,Clear,240,2012-12-31 18:15:00
11:35 AM,48.2,28.4,46,29.93,10.0,WSW,34.5,40.3,N/A,,Clear,240,2012-12-31 18:35:00
11:55 AM,50.0,28.4,43,29.92,10.0,West,28.8,40.3,N/A,,Clear,260,2012-12-31 18:55:00
12:15 PM,50.0,28.4,43,29.92,10.0,WSW,28.8,38.0,N/A,,Clear,250,2012-12-31 19:15:00
12:35 PM,50.0,26.6,40,29.92,10.0,WSW,26.5,33.4,N/A,,Clear,240,2012-12-31 19:35:00
12:55 PM,50.0,26.6,40,29.92,10.0,WSW,25.3,32.2,N/A,,Clear,240,2012-12-31 19:55:00
1:15 PM,50.0,26.6,40,29.92,10.0,WSW,23.0,29.9,N/A,,Clear,240,2012-12-31 20:15:00
1:35 PM,51.8,26.6,38,29.91,10.0,WSW,19.6,25.3,N/A,,Clear,240,2012-12-31 20:35:00
1:55 PM,51.8,24.8,35,29.91,10.0,SW,21.9,28.8,N/A,,Clear,230,2012-12-31 20:55:00
2:15 PM,53.6,24.8,33,29.91,10.0,WSW,23.0,28.8,N/A,,Clear,240,2012-12-31 21:15:00
2:35 PM,53.6,23.0,30,29.91,10.0,WSW,24.2,29.9,N/A,,Clear,240,2012-12-31 21:35:00
2:55 PM,51.8,23.0,33,29.92,10.0,WSW,23.0,31.1,N/A,,Clear,240,2012-12-31 21:55:00
3:15 PM,51.8,23.0,33,29.93,10.0,WSW,20.7,25.3,N/A,,Clear,240,2012-12-31 22:15:00
3:35 PM,51.8,21.2,30,29.94,10.0,WSW,17.3,-,N/A,,Clear,250,2012-12-31 22:35:00
3:55 PM,50.0,23.0,35,29.95,10.0,WSW,19.6,26.5,N/A,,Clear,240,2012-12-31 22:55:00
4:15 PM,50.0,23.0,35,29.95,10.0,West,15.0,-,N/A,,Partly Cloudy,270,2012-12-31 23:15:00
4:35 PM,48.2,21.2,34,29.96,10.0,West,12.7,-,N/A,,Scattered Clouds,270,2012-12-31 23:35:00
5:15 PM,44.6,24.8,46,29.98,10.0,WSW,9.2,-,N/A,,Clear,240,2013-01-01 00:15:00
5:35 PM,42.8,24.8,49,29.99,10.0,WSW,8.1,-,N/A,,Clear,240,2013-01-01 00:35:00
5:55 PM,41.0,24.8,53,29.99,10.0,WSW,9.2,-,N/A,,Clear,240,2013-01-01 00:55:00
6:35 PM,39.2,24.8,56,30.00,10.0,West,11.5,-,N/A,,Clear,270,2013-01-01 01:35:00
6:55 PM,39.2,24.8,56,29.99,10.0,West,12.7,-,N/A,,Scattered Clouds,280,2013-01-01 01:55:00
7:35 PM,37.4,24.8,60,30.01,10.0,WSW,9.2,-,N/A,,Mostly Cloudy,240,2013-01-01 02:35:00
8:35 PM,35.6,24.8,65,30.02,10.0,SSW,10.4,-,N/A,,Clear,210,2013-01-01 03:35:00
8:55 PM,32.0,24.8,75,30.03,10.0,SSW,8.1,-,N/A,,Clear,200,2013-01-01 03:55:00
9:15 PM,32.0,24.8,75,30.03,10.0,SW,9.2,-,N/A,,Clear,230,2013-01-01 04:15:00
9:35 PM,32.0,24.8,75,30.04,10.0,West,11.5,-,N/A,,Clear,280,2013-01-01 04:35:00
9:55 PM,37.4,24.8,60,30.04,10.0,West,15.0,21.9,N/A,,Clear,260,2013-01-01 04:55:00
10:15 PM,37.4,24.8,60,30.03,10.0,WSW,12.7,-,N/A,,Clear,250,2013-01-01 05:15:00
10:35 PM,35.6,24.8,65,30.04,10.0,West,10.4,-,N/A,,Clear,270,2013-01-01 05:35:00
10:55 PM,35.6,24.8,65,30.04,10.0,WSW,16.1,-,N/A,,Clear,240,2013-01-01 05:55:00
11:15 PM,35.6,24.8,65,30.04,10.0,WSW,16.1,-,N/A,,Clear,240,2013-01-01 06:15:00
11:35 PM,35.6,24.8,65,30.04,10.0,WSW,17.3,-,N/A,,Clear,240,2013-01-01 06:35:00
11:55 PM,35.6,24.8,65,30.05,10.0,WSW,15.0,-,N/A,,Clear,250,2013-01-01 06:55:00